map of GJT home
Great Circle Mapper logo
GJT - Airport
Location
City:  Grand Junction, Colorado, United States
Name:Grand Junction Regional
Old (Alt.):Walker Field
ICAO / IATA:KGJT / GJT
FAA LID:GJT

Details
Type:Airport (Part 139 Class I)
Use:Public/Civil
Latitude:3907'21"N (39.122412)
Longitude:10831'36"W (-108.526734)
Datum:WGS 1984
Elevation:4857 ft (1480 m)
Variation:10.02E (WMM2015 magnetic declination)
-0.10 annual change
Runways:2
Longest:10501 × 150 ft (3201 × 45.5 m), paved

Time
Time Zone:UTC-7 (DST-6)
Local Time:

Weather
METAR:KGJT 092353Z 00000KT 10SM CLR 06/M02 A3045 RMK AO2 SLP330 T00561022 10072 20006 55003
TAF:KGJT 092323Z 1000/1024 VRB03KT P6SM SKC

Related Locations
Nearby:
Farthest:RRG: 11013 mi / 17723 km
Plaine Corail, Rodrigues Island, MU

Find:

   beyond  
but within

Other Information
Maps:
Delays:
NOTAMs:
Links:
Sources:

  
flag of United States
flag of Colorado
  

Airport Diagram

Airport diagram for GJT

Airport diagram PDF

Sectional Chart

Flight Planning
at skyvector.com

Satellite Image

Google Maps Satellite view

 

Copyright © 2004-2016 Karl L. Swartz. All rights reserved.
The Great Circle Mapper name and logo are trademarks of the Great Circle Mapper.
All other trademarks mentioned herein belong to their respective owners.
Please see credits for attibutions and further copyright information.

  Follow gcmap on Facebook Follow gcmap on Twitter Follow gcmap on Google+ GCmap on LinkedIn

hCard Microformat

Geo Microformat